EW9525 Weather Reports


time (UTC)temp
C
wind
direction
speed
KPH
gust
KPH
rain 1hr
cm
rain 24hr
cm
rain mn
cm
humidity
%
barometer
mb
20260831103030 21 204 4.8 9.7 0.00 0.00 0.00 78 1009.7
20260831101528 21 205 8.0 16.1 0.00 0.00 0.00 76 1010.0
20260831100033 21 217 9.7 12.9 0.00 0.00 0.00 74 1010.1
20260831094522 21 229 9.7 12.9 0.00 0.00 0.00 72 1010.2
20260831093020 22 242 4.8 12.9 0.00 0.00 0.00 70 1010.2
20260831091519 22 226 8.0 12.9 0.00 0.00 0.00 68 1010.1
20260831090019 22 185 6.4 12.9 0.00 0.00 0.00 66 1010.0
20260831084523 21 259 0.0 6.4 0.00 0.00 0.00 68 1010.1
20260831083015 22 226 4.8 9.7 0.00 0.00 0.00 68 1009.8
20260831081513 22 213 1.6 6.4 0.00 0.00 0.00 64 1009.7
20260831080012 22 237 1.6 4.8 0.00 0.00 0.00 62 1009.8
20260831074512 23 239 3.2 11.3 0.00 0.00 0.00 60 1010.0
20260831073011 23 219 11.3 22.5 0.00 0.00 0.00 58 1010.0
20260831071507 22 221 6.4 9.7 0.00 0.00 0.00 60 1009.6
20260831070006 22 205 6.4 8.0 0.00 0.00 0.00 60 1009.4
20260831064504 22 223 6.4 8.0 0.00 0.00 0.00 63 1009.3
20260831063001 22 221 4.8 8.0 0.00 0.00 0.00 62 1009.0
20260831061608 22 220 3.2 4.8 0.00 0.00 0.00 62 1009.0
20260831060109 22 244 3.2 4.8 0.00 0.00 0.00 59 1008.8
20260831054556 23 242 3.2 4.8 0.00 0.00 0.00 58 1008.7
20260831053119 22 225 3.2 4.8 0.00 0.00 0.00 58 1008.4
20260831051602 23 214 6.4 11.3 0.00 0.00 0.00 56 1008.5
20260831050047 26 269 1.6 9.7 0.00 0.00 0.00 42 1008.3
20260831044546 25 303 4.8 8.0 0.00 0.00 0.00 48 1008.0
20260831043045 25 295 8.0 12.9 0.00 0.00 0.00 45 1007.9
20260831041545 23 315 1.6 6.4 0.00 0.00 0.00 53 1007.7
20260831040045 26 307 3.2 8.0 0.00 0.00 0.00 46 1008.0
20260831034549 27 299 8.0 12.9 0.00 0.00 0.00 40 1008.3
20260831033102 25 307 4.8 8.0 0.00 0.00 0.00 45 1008.3
20260831031543 25 310 4.8 8.0 0.00 0.00 0.00 49 1008.2
20260831030042 25 312 4.8 9.7 0.00 0.00 0.00 49 1008.2
20260831024542 26 323 8.0 12.9 0.00 0.00 0.00 48 1008.3
20260831023040 26 294 11.3 22.5 0.00 0.00 0.00 49 1008.4
20260831021539 27 300 19.3 35.4 0.00 0.00 0.00 50 1008.1
20260831020043 27 276 1.6 3.2 0.00 0.00 0.00 52 1007.2
20260831014537 27 225 1.6 3.2 0.00 0.00 0.00 52 1007.2
20260831013039 27 158 1.6 3.2 0.00 0.00 0.00 55 1006.8
20260831011543 28 146 0.0 1.6 0.00 0.00 0.00 51 1006.6
20260831010035 28 139 1.6 3.2 0.00 0.00 0.00 53 1006.5
20260831004535 30 129 1.6 3.2 0.00 0.00 0.00 49 1006.5
20260831003037 31 146 1.6 6.4 0.00 0.00 0.00 44 1006.5
20260831001534 32 150 4.8 9.7 0.00 0.00 0.00 42 1006.6
20260831000037 32 164 4.8 9.7 0.00 0.00 0.00 41 1006.7
20260830234537 32 146 6.4 9.7 0.00 0.00 0.00 38 1006.7
20260830233036 33 130 8.0 14.5 0.00 0.00 0.00 38 1006.4
20260830231531 33 94 4.8 9.7 0.00 0.00 0.00 37 1006.3
20260830230033 33 76 6.4 11.3 0.00 0.00 0.00 37 1006.1
20260830224530 33 73 8.0 16.1 0.00 0.00 0.00 36 1006.1
20260830223030 33 84 8.0 12.9 0.00 0.00 0.00 40 1006.1
20260830221537 32 76 4.8 9.7 0.00 0.00 0.00 40 1005.9
20260830220029 33 67 8.0 14.5 0.00 0.00 0.00 36 1005.8
20260830214528 33 77 11.3 17.7 0.00 0.00 0.00 36 1005.8
20260830213033 32 75 6.4 11.3 0.00 0.00 0.00 37 1005.8
20260830211527 33 75 4.8 11.3 0.00 0.00 0.00 36 1005.8
20260830210027 33 77 0.0 8.0 0.00 0.00 0.00 31 1006.0
20260830204526 34 274 4.8 14.5 0.00 0.00 0.00 32 1006.0
20260830203023 34 252 3.2 9.7 0.00 0.00 0.00 30 1006.2
20260830201522 33 313 4.8 12.9 0.00 0.00 0.00 32 1006.2
20260830200020 33 271 3.2 11.3 0.00 0.00 0.00 30 1006.5
20260830194518 33 335 3.2 20.9 0.00 0.00 0.00 30 1006.5
20260830193017 33 292 6.4 12.9 0.00 0.00 0.00 29 1006.5
20260830191517 32 322 3.2 12.9 0.00 0.00 0.00 33 1006.4
20260830190014 32 225 4.8 12.9 0.00 0.00 0.00 35 1006.6
20260830184511 31 279 1.6 11.3 0.00 0.00 0.00 40 1006.6
20260830183008 31 317 3.2 14.5 0.00 0.00 0.00 36 1006.7
20260830181506 31 1 8.0 16.1 0.00 0.00 0.00 37 1006.8
20260830180003 30 14 9.7 16.1 0.00 0.00 0.00 38 1007.0
20260830174505 30 313 8.0 16.1 0.00 0.00 0.00 39 1007.3
20260830173126 30 314 8.0 14.5 0.00 0.00 0.00 37 1007.5
20260830171605 30 290 8.0 16.1 0.00 0.00 0.00 39 1007.7
20260830170054 29 323 3.2 8.0 0.00 0.00 0.00 43 1007.9
20260830164551 28 261 1.6 12.9 0.00 0.00 0.00 45 1007.8
20260830163050 27 295 8.0 17.7 0.00 0.00 0.00 49 1007.7
20260830161600 26 321 6.4 16.1 0.00 0.00 0.00 53 1007.5
20260830160040 25 297 4.8 12.9 0.00 0.00 0.00 61 1007.6
20260830154540 25 329 8.0 14.5 0.00 0.00 0.00 60 1007.2
20260830153041 25 295 6.4 12.9 0.00 0.00 0.00 61 1007.6
20260830151542 25 297 8.0 16.1 0.00 0.00 0.00 60 1007.2
20260830150037 24 304 6.4 12.9 0.00 0.00 0.00 62 1007.6
20260830144547 24 276 6.4 11.3 0.00 0.00 0.00 63 1007.5
20260830143032 23 296 9.7 19.3 0.00 0.00 0.00 65 1006.6
20260830141531 23 296 9.7 17.7 0.00 0.00 0.00 63 1006.8
20260830140031 23 289 9.7 17.7 0.00 0.00 0.00 66 1006.8
20260830134530 22 289 12.9 19.3 0.00 0.00 0.00 70 1006.8
20260830133031 21 297 6.4 11.3 0.00 0.00 0.00 74 1007.0
20260830131527 20 234 0.0 4.8 0.00 0.00 0.00 82 1006.9
20260830130025 19 233 0.0 8.0 0.00 0.00 0.00 82 1006.7
20260830124533 19 313 8.0 9.7 0.00 0.00 0.00 83 1006.4
20260830123023 18 275 4.8 12.9 0.00 0.00 0.00 86 1006.2
20260830121522 18 284 8.0 12.9 0.00 0.00 0.00 85 1006.0
20260830120021 18 286 4.8 9.7 0.00 0.00 0.00 84 1005.9
20260830114520 18 286 4.8 12.9 0.00 0.00 0.00 84 1005.8
20260830113023 18 295 4.8 11.3 0.00 0.00 0.00 84 1005.7
20260830111520 18 295 3.2 11.3 0.00 0.00 0.00 84 1005.7
20260830110020 18 313 4.8 8.0 0.00 0.00 0.00 84 1005.5
20260830104518 18 287 1.6 4.8 0.00 0.00 0.00 83 1005.3